Regional Weather Roundup
Issued by NWS Charleston, SC

Current Version | Previous Version | Graphics & Text | Print | Product List | Glossary On
Versions: 1 2 3 4 5 6 7 8 9 10 11 12 13 14 15 16 17 18 19 20 21 22 23 24 25 26 27 28 29 30 31 32 33 34 35 36 37 38 39 40 41 42 43 44 45 46 47 48 49 50
000
ASUS42 KCHS 192325
RWRCHS

REGIONAL WEATHER ROUNDUP
NATIONAL WEATHER SERVICE CHARLESTON SC
700 PM EDT FRI SEP 19 2014

NOTE: "FAIR" INDICATES FEW OR NO CLOUDS BELOW 12,000 FEET WITH NO
SIGNIFICANT WEATHER AND/OR OBSTRUCTIONS TO VISIBILITY.

NOT ALL STATIONS ARE QUALITY CONTROLLED BY THE NATIONAL
WEATHER SERVICE. USE DATA WITH CAUTION...ESPECIALLY
DEWPOINT OBSERVATIONS.

SCZ027-030-031-034>040-042>050-200000-
...SOUTH CAROLINA...

CITY           SKY/WX    TMP DP  RH WIND       PRES   REMARKS
N CHARLESTON   LGT RAIN  74  69  85 E10       30.09R
WATERFRONT PRK   N/A     79 N/A N/A NE13        N/A
FORT JOHNSON   NOT AVBL
MOUNT PLEASANT FAIR      68  66  94 N3        30.08F FOG
JOHNS ISLAND   MOCLDY    77  77 100 CALM      30.07S
PINOPOLIS        N/A     75  70  83 NE6       30.00F
MONCKS CORNER    N/A     73  72  94 CALM      30.10R
SUMMERVILLE    CLOUDY    70  70 100 N3        30.10R
BEAUFORT MCAS  CLOUDY    73  69  87 W12       30.06S
BEAUFORT ARPT  MOCLDY    75  72  88 NE16      30.06R
HILTON HEAD IS MOCLDY    75  70  83 NE14G21   30.05
GEORGETOWN     NOT AVBL
WALTERBORO     CLOUDY    72  72 100 NE3       30.08F
ORANGEBURG     CLOUDY    71  63  75 VRB3      30.11S
BARNWELL       MOCLDY    72  66  83 E8        30.12R
AIKEN          LGT RAIN  68  68 100 NE3       30.16S
MANNING        MOCLDY    72 N/A N/A CALM      30.12R
KINGSTREE      NOT AVBL
COLUMBIA       MOCLDY    76  67  73 E6        30.10R
SUMTER         CLOUDY    71  66  82 E9        30.11S
FLORENCE       MOCLDY    75  66  73 E6        30.13R
MYRTLE BEACH   MOCLDY    79  66  65 E14G21    30.10S
N MYRTLE BEACH MOCLDY    76  65  68 NE15G23   30.11R

$$

GAZ063-065-086>088-099>101-113>116-118-119-134-136>141-150-200000-
...GEORGIA...

CITY           SKY/WX    TMP DP  RH WIND       PRES   REMARKS
SAVANNAH ARPT  CLOUDY    78  69  73 NE10      30.04R
HUNTER AAF     TSTM      73  72  94 NE3       30.02R FOG
FORT STEWART   CLOUDY    78  71  79 NE6       30.01R
STATESBORO     NOT AVBL
SYLVANIA       LGT RAIN  76  73  91 E5        30.09S
CLAXTON        MOCLDY    77  75  94 NE6       30.05R
THOMSON        CLEAR     77  73  86 E7        30.14R
AUGUSTA-BUSH   MOCLDY    71  67  87 E9        30.09R
AUGUSTA-DANIEL CLOUDY    73  65  75 E15G23    30.11R
SWAINSBORO     RAIN      73  73 100 E5        30.09R
VIDALIA        LGT RAIN  75  70  83 NE17      30.06R
ALMA           CLOUDY    76  69  79 E3        30.01R
WAYCROSS       CLOUDY    76  74  92 E5        30.02R
JESUP          FAIR      77  73  88 NE5       30.02R
BRUNSWICK      CLOUDY    73  70  88 CALM      30.01R
SAINT SIMONS   CLOUDY    80  71  74 E13G18    29.98F

$$

SCZ027-028-034-036>038-045-046-048>050-GAZ119-141-200000-
...LAKE AND SUPPLEMENTAL COASTAL OBSERVATIONS...

STATION/POSITION TIME  TEMP    WIND        PRES    WAVE   SWELL
                       AIR SEA DIR/SP/G            HT/PER HT/PER/DIR
                 (UTC) (F)     (DEG/KT/KT) (MB)    (FT/S) (FT/S/D)
UPR LAKE MARION  NOT AVBL
WINYAH BAY       2300   78      80/ 16     1018.0S
LAKE MURRAY      2300   78      40/  4/  6 1019.0R
ACE BASIN NERRS  2300   72      30/  5     1018.0S
FORT PULASKI     2300   80      80/ 20/ 23 1017.1R
SAPELO ISLAND    2300   80      80/  9     1016.0S

$$

ANZ835-935-AMZ111-154-330-350-352-354-374-450-454-472-200000-
...C-MAN AND BUOY OBSERVATIONS...

STATION/POSITION TIME  TEMP    WIND        PRES    WAVE   SWELL
                       AIR SEA DIR/SP/G            HT/PER HT/PER/DIR
                 (UTC) (F)     (DEG/KT/KT) (MB)    (FT/S) (FT/S/D)
FOLLY BEACH CMAN 2300   79      70/ 17/ 20 1018.5R
BUOY 41004       2300   79 82   90/ 16/ 17 1017.1R   6/ 6   3/ 8
BUOY 41008       2300   80 84   90/ 17/ 21 1015.6R   4/ 5   2/ 70/10
5E ST. MARYS GA  2300      84                N/A     3/ 8
FRYING PAN BUOY  NOT AVBL
BUOY 41025       2300   76      20/ 19/ 23 1020.9R   6/ 6   2/ 70/ 9
CAPE LOOKOUT NC  2300   75      40/ 20/ 25 1021.1S
BUOY 41002       2245   79 82   60/ 19/ 23 1017.4F   4/ 9   2/ 80/ 9
BUOY 41010       2300   83 85   70/ 12/ 14 1013.6F   3/10   2/ 60/10
BUOY 41012       NOT AVBL
ST AUGUSTINE FL  2300   79      80/  9/ 10 1015.3F
CAPERS NEARSHORE 2200   79     100/ 14/ 17   N/A
FRIPP NEARSHORE  NOT AVBL


$$


USA.gov is the U.S. government's official web portal to all federal, state and local government web resources and services.